Location: Bailleul
(50.3375°N, 2.8513°E)
Time: 05:17:55
(UTC+00:00)

COSMOS 2487 - Pass Details

Date: 19 April 2021
Orbit: 432 x 434 km, 74.7° (Epoch: 09 May)

Event Time Altitude Azimuth Distance (km) Brightness Sun altitude
Rises 19:51:18 0° 211° (SSW) 2,406 6.1 -9.7°
Reaches altitude 10° 19:53:23 10° 216° (SW) 1,543 5.2 -10.0°
Maximum altitude 19:56:43 56° 295° (WNW) 527 3.1 -10.4°
Drops below altitude 10° 20:00:05 10° 15° (NNE) 1,557 5.4 -10.9°
Sets 20:02:12 0° 20° (NNE) 2,431 6.3 -11.2°
